EN

Hourly Weather Aberfeldy

Today, 6 March, Saturday

Time Temperature Precipitation Wind Pressure Humidity
00:00 -1°C° 0 mm 1 mps 748 mmHg 84%
01:00 -1°C° 0 mm 1 mps 747 mmHg 85%
02:00 -1°C° 0 mm 1 mps 747 mmHg 86%
03:00 -1°C° 0 mm 1 mps 747 mmHg 87%
04:00 -1°C° 0 mm 1 mps 747 mmHg 87%
05:00 -1°C° 0 mm 1 mps 747 mmHg 87%
06:00 -1°C° 0 mm 1 mps 747 mmHg 89%
07:00 0°C° 0 mm 1 mps 746 mmHg 84%
08:00 +1°C° 0 mm 1 mps 746 mmHg 80%
09:00 +2°C° 0 mm 1 mps 746 mmHg 75%
10:00 +3°C° 0 mm 1 mps 746 mmHg 70%
11:00 +3°C° 0 mm 2 mps 746 mmHg 66%
12:00 +4°C° 0 mm 2 mps 746 mmHg 61%
13:00 +5°C° 0 mm 2 mps 746 mmHg 62%
14:00 +5°C° 0 mm 2 mps 745 mmHg 63%
15:00 +5°C° 0 mm 2 mps 745 mmHg 64%
16:00 +4°C° 0 mm 2 mps 744 mmHg 72%
17:00 +3°C° 0 mm 2 mps 744 mmHg 80%
18:00 +2°C° 0 mm 1 mps 744 mmHg 88%
19:00 +2°C° 0 mm 1 mps 744 mmHg 90%
20:00 +2°C° 0 mm 1 mps 743 mmHg 92%
21:00 +2°C° 0 mm 1 mps 743 mmHg 94%
22:00 +1°C° 0 mm 1 mps 743 mmHg 94%
23:00 +1°C° 0 mm 1 mps 743 mmHg 95%

Tomorrow, 7 March, Sunday

Time Temperature Precipitation Wind Pressure Humidity
00:00 -1°C° 0 mm 2 mps 743 mmHg 95%
01:00 -1°C° 0 mm 2 mps 742 mmHg 95%
02:00 +1°C° 0 mm 2 mps 742 mmHg 95%
03:00 +1°C° 0 mm 2 mps 741 mmHg 95%
04:00 +1°C° 0 mm 2 mps 741 mmHg 95%
05:00 +2°C° 0 mm 1 mps 741 mmHg 95%
06:00 +2°C° 0 mm 1 mps 741 mmHg 96%
07:00 +3°C° 0 mm 1 mps 741 mmHg 93%
08:00 +3°C° 0 mm 1 mps 741 mmHg 90%
09:00 +4°C° 0 mm 1 mps 741 mmHg 87%
10:00 +5°C° 0 mm 1 mps 740 mmHg 83%
11:00 +5°C° 0 mm 2 mps 740 mmHg 79%
12:00 +6°C° 0 mm 2 mps 740 mmHg 75%
13:00 +6°C° 0 mm 2 mps 740 mmHg 77%
14:00 +6°C° 0 mm 2 mps 739 mmHg 79%
15:00 +6°C° 0 mm 2 mps 739 mmHg 81%
16:00 +5°C° 0.1 mm 2 mps 738 mmHg 85%
17:00 +4°C° 0.1 mm 2 mps 738 mmHg 90%
18:00 +4°C° 0.1 mm 1 mps 738 mmHg 94%
19:00 +4°C° 0.5 mm 1 mps 738 mmHg 95%
20:00 +4°C° 0.5 mm 1 mps 737 mmHg 96%
21:00 +4°C° 0.5 mm 1 mps 737 mmHg 97%
22:00 +4°C° 0.3 mm 1 mps 737 mmHg 97%
23:00 +4°C° 0.3 mm 1 mps 737 mmHg 98%

Day after tomorrow, 8 March, Monday

Time Temperature Precipitation Wind Pressure Humidity
00:00 +4°C° 0.3 mm 1 mps 737 mmHg 98%
01:00 +4°C° 0.2 mm 1 mps 736 mmHg 98%
02:00 +4°C° 0.2 mm 1 mps 736 mmHg 97%
03:00 +4°C° 0.2 mm 1 mps 736 mmHg 97%
04:00 +4°C° 0.1 mm 1 mps 736 mmHg 97%
05:00 +4°C° 0.1 mm 1 mps 736 mmHg 97%
06:00 +4°C° 0.1 mm 1 mps 736 mmHg 97%
07:00 +5°C° 0 mm 1 mps 736 mmHg 96%
08:00 +5°C° 0 mm 1 mps 736 mmHg 95%
09:00 +6°C° 0 mm 1 mps 736 mmHg 94%
10:00 +6°C° 0 mm 1 mps 737 mmHg 91%
11:00 +6°C° 0 mm 2 mps 737 mmHg 88%
12:00 +7°C° 0 mm 2 mps 737 mmHg 85%
13:00 +7°C° 0 mm 2 mps 736 mmHg 82%
14:00 +7°C° 0 mm 2 mps 736 mmHg 80%
15:00 +8°C° 0 mm 1 mps 736 mmHg 78%
16:00 +7°C° 0 mm 1 mps 736 mmHg 81%
17:00 +6°C° 0 mm 1 mps 735 mmHg 85%
18:00 +5°C° 0 mm 1 mps 735 mmHg 89%
19:00 +5°C° 0 mm 1 mps 735 mmHg 90%
20:00 +4°C° 0 mm 1 mps 735 mmHg 91%
21:00 +3°C° 0 mm 1 mps 735 mmHg 92%
22:00 +3°C° 0 mm 1 mps 735 mmHg 93%
23:00 +3°C° 0 mm 1 mps 735 mmHg 93%

9 March, Tuesday

Time Temperature Precipitation Wind Pressure Humidity
00:00 +3°C° 0 mm 1 mps 734 mmHg 94%
01:00 +3°C° 0 mm 1 mps 734 mmHg 95%
02:00 +3°C° 0 mm 1 mps 733 mmHg 95%
03:00 +3°C° 0 mm 1 mps 733 mmHg 96%
04:00 +3°C° 0 mm 1 mps 733 mmHg 97%
05:00 +3°C° 0 mm 1 mps 733 mmHg 97%
06:00 +4°C° 0 mm 1 mps 732 mmHg 98%
07:00 +4°C° 0 mm 1 mps 732 mmHg 97%
08:00 +5°C° 0 mm 1 mps 732 mmHg 96%
09:00 +5°C° 0 mm 1 mps 732 mmHg 95%
10:00 +5°C° 0 mm 2 mps 732 mmHg 91%
11:00 +6°C° 0 mm 2 mps 731 mmHg 86%
12:00 +5°C° 0 mm 3 mps 731 mmHg 82%
13:00 +5°C° 0.1 mm 4 mps 730 mmHg 81%
14:00 +5°C° 0.1 mm 4 mps 729 mmHg 80%
15:00 +5°C° 0.1 mm 5 mps 729 mmHg 79%
16:00 +5°C° 0 mm 5 mps 727 mmHg 82%
17:00 +4°C° 0 mm 4 mps 726 mmHg 85%
18:00 +4°C° 0 mm 4 mps 725 mmHg 87%
19:00 +2°C° 0.6 mm 5 mps 724 mmHg 90%
20:00 +2°C° 0.6 mm 6 mps 722 mmHg 92%
21:00 +2°C° 0.6 mm 6 mps 721 mmHg 95%
22:00 +3°C° 1.7 mm 6 mps 719 mmHg 95%
23:00 +3°C° 1.7 mm 7 mps 718 mmHg 94%

10 March, Wednesday

Time Temperature Precipitation Wind Pressure Humidity
00:00 +4°C° 1.7 mm 7 mps 716 mmHg 94%
01:00 +3°C° 1.4 mm 7 mps 716 mmHg 92%
02:00 +2°C° 1.4 mm 6 mps 715 mmHg 90%
03:00 +2°C° 1.4 mm 6 mps 715 mmHg 88%
04:00 +1°C° 0.3 mm 6 mps 715 mmHg 89%
05:00 +1°C° 0.3 mm 6 mps 716 mmHg 90%
06:00 +1°C° 0.3 mm 6 mps 716 mmHg 91%
07:00 +1°C° 0.1 mm 6 mps 717 mmHg 86%
08:00 0°C° 0.1 mm 7 mps 717 mmHg 80%
09:00 +1°C° 0.1 mm 8 mps 718 mmHg 74%
10:00 +1°C° 0.1 mm 8 mps 718 mmHg 72%
11:00 +2°C° 0.1 mm 9 mps 718 mmHg 70%
12:00 +2°C° 0.1 mm 9 mps 718 mmHg 68%
13:00 +2°C° 0.1 mm 9 mps 718 mmHg 69%
14:00 +2°C° 0.1 mm 8 mps 717 mmHg 70%
15:00 +3°C° 0.1 mm 7 mps 717 mmHg 71%
16:00 +2°C° 0 mm 6 mps 716 mmHg 76%
17:00 +2°C° 0 mm 6 mps 715 mmHg 80%
18:00 +1°C° 0 mm 5 mps 714 mmHg 85%
19:00 0°C° 0.7 mm 4 mps 712 mmHg 89%
20:00 +1°C° 0.7 mm 3 mps 710 mmHg 93%
21:00 0°C° 0.7 mm 3 mps 708 mmHg 97%
22:00 +2°C° 1.6 mm 2 mps 707 mmHg 98%
23:00 +2°C° 1.6 mm 2 mps 705 mmHg 98%

11 March, Thursday

Time Temperature Precipitation Wind Pressure Humidity
00:00 +3°C° 1.6 mm 2 mps 704 mmHg 98%
01:00 +2°C° 0.9 mm 3 mps 702 mmHg 97%
02:00 +1°C° 0.9 mm 4 mps 701 mmHg 97%
03:00 +3°C° 0.9 mm 4 mps 700 mmHg 96%
04:00 +2°C° 0.6 mm 3 mps 699 mmHg 97%
05:00 +3°C° 0.6 mm 2 mps 698 mmHg 98%
06:00 +4°C° 0.6 mm 1 mps 697 mmHg 99%
07:00 +4°C° 0.2 mm 1 mps 698 mmHg 97%
08:00 +3°C° 0.2 mm 2 mps 699 mmHg 95%
09:00 +3°C° 0.2 mm 3 mps 700 mmHg 94%
10:00 +2°C° 0.1 mm 6 mps 702 mmHg 90%
11:00 +1°C° 0.1 mm 8 mps 704 mmHg 86%
12:00 +1°C° 0.1 mm 10 mps 705 mmHg 82%
13:00 +1°C° 0.1 mm 10 mps 706 mmHg 79%
14:00 +1°C° 0.1 mm 10 mps 707 mmHg 75%
15:00 +1°C° 0.1 mm 11 mps 708 mmHg 72%
16:00 0°C° 0.1 mm 9 mps 708 mmHg 73%
17:00 -1°C° 0.1 mm 8 mps 709 mmHg 75%
18:00 -1°C° 0.1 mm 7 mps 710 mmHg 76%
19:00 -2°C° 0 mm 6 mps 710 mmHg 79%
20:00 -2°C° 0 mm 6 mps 710 mmHg 81%
21:00 -1°C° 0 mm 5 mps 711 mmHg 83%
22:00 -1°C° 0.1 mm 5 mps 711 mmHg 84%
23:00 -1°C° 0.1 mm 5 mps 711 mmHg 84%
Show more